Regional Weather Roundup
Issued by NWS

Home | Current Version | Previous Version | Text Only | Print | Product List | Glossary Off
Versions: 1 2 3 4 5 6 7 8 9 10 11 12 13 14 15 16 17 18 19 20 21 22 23 24 25 26 27 28 29 30 31 32 33 34 35 36 37 38 39 40 41 42 43 44 45 46 47 48 49 50

000
ASUS43 KFSD 181710
RWRSD

WEATHER ROUNDUP FOR SOUTH DAKOTA
NATIONAL WEATHER SERVICE SIOUX FALLS SD
1100 AM CST SUN FEB 18 2018

NOTE: "FAIR" INDICATES FEW OR NO CLOUDS BELOW 12,000 FEET WITH NO
SIGNIFICANT WEATHER AND/OR OBSTRUCTIONS TO VISIBILITY.


SDZ001>005-009-010-012>017-181800-
NORTHWEST AND NORTH CENTRAL SOUTH DAKOTA

CITY           SKY/WX    TMP DP  RH WIND       PRES   REMARKS
BUFFALO          N/A     11   4  73 N23       29.60R WCI  -9
FAITH            N/A     16  15  96 N23       29.61R WCI  -2
MOBRIDGE       CLOUDY    22  16  78 N16       29.58R WCI   8
$$

SDZ012>016-024>037-041>051-057-063-072>074-181800-
SOUTHWEST AND SOUTH CENTRAL SOUTH DAKOTA

CITY           SKY/WX    TMP DP  RH WIND       PRES   REMARKS
RAPID CTY ARPT CLOUDY    26  20  77 N31G43    29.54R WCI   9
PIERRE         CLOUDY    25  22  88 NW13      29.55R WCI  14
CUSTER         PTSUNNY   34  19  54 VRB6      29.47F WCI  29
ELLSWORTH AFB  MIX PCPN  25  19  80 N33G41    29.54  WCI   7
PHILIP         CLOUDY    25  20  81 NW20      29.58R WCI  11
PINE RIDGE     PTSUNNY   39  29  67 N13       29.54R
SPEARFISH      LGT SNOW  18  16  93 NW18      29.63R WCI   2
WINNER         FAIR      37  27  67 NW24      29.53R
$$

SDZ004>011-016>023-039-040-181800-
NORTHEAST SOUTH DAKOTA

CITY           SKY/WX    TMP DP  RH WIND       PRES   REMARKS
ABERDEEN       PTSUNNY   29  22  75 NE16      29.54R WCI  17
WATERTOWN      CLOUDY    37  25  61 S15       29.47S
BROOKINGS      CLOUDY    39  26  59 S20       29.50F
SISSETON         N/A     30  22  72 E5        29.55F WCI  25
$$

SDZ017-020-022-023-036>040-048>070-181800-
SOUTHEAST SOUTH DAKOTA

CITY           SKY/WX    TMP DP  RH WIND       PRES   REMARKS
SIOUX FALLS    CLOUDY    42  28  57 SW18G29   29.56R
HURON          CLOUDY    38  27  64 S7        29.49R
CHAMBERLAIN    CLOUDY    39  29  67 W17       29.50R
MITCHELL       CLOUDY    42  27  55 SW7       29.51R
YANKTON        CLOUDY    44  27  51 S23G37    29.51F
$$

ABBREVIATIONS USED IN REMARKS
   TC - TEMPERATURE IN CELSIUS
  WCI - WIND CHILL INDEX
   HX - HEAT INDEX
  VSB - VISIBILITY





USA.gov is the U.S. government's official web portal to all federal, state and local government web resources and services.